Time,TemperatureF,DewpointF,PressureIn,WindDirection,WindDirectionDegrees,WindSpeedMPH,WindSpeedGustMPH,Humidity,HourlyPrecipIn,Conditions,Clouds,dailyrainin,SoftwareType,DateUTC
2013-02-26 00:00:00,32.9,31.1,30.65,ENE,63,1.2,1.2,93,0.00,CLR,,0.00,WeatherDisplay:10.37,2013-02-26 00:00:00,
2013-02-26 00:05:00,33.3,31.5,30.65,North,358,2.3,2.3,93,0.00,CLR,,0.00,WeatherDisplay:10.37,2013-02-26 00:05:00,
2013-02-26 00:10:00,33.3,31.2,30.65,North,354,1.2,1.2,92,0.00,CLR,,0.00,WeatherDisplay:10.37,2013-02-26 00:10:00,
2013-02-26 00:15:00,33.9,32.1,30.66,NE,44,1.2,1.2,93,0.00,CLR,,0.00,WeatherDisplay:10.37,2013-02-26 00:15:00,
2013-02-26 00:20:00,34.5,32.4,30.66,East,99,3.5,3.5,92,0.00,CLR,,0.00,WeatherDisplay:10.37,2013-02-26 00:20:00,
2013-02-26 00:25:00,34.6,32.2,30.66,ENE,75,1.2,1.2,91,0.00,CLR,,0.00,WeatherDisplay:10.37,2013-02-26 00:25:00,
2013-02-26 00:30:00,34.1,31.5,30.66,NW,318,1.0,0.0,90,0.00,CLR,,0.00,WeatherDisplay:10.37,2013-02-26 00:30:00,
2013-02-26 00:35:00,34.5,32.4,30.66,East,96,3.5,3.5,92,0.00,CLR,,0.00,WeatherDisplay:10.37,2013-02-26 00:35:00,
2013-02-26 00:40:00,35.1,33.0,30.66,ENE,78,5.8,5.8,92,0.00,CLR,,0.00,WeatherDisplay:10.37,2013-02-26 00:40:00,
2013-02-26 00:45:00,35.4,33.0,30.66,ESE,117,5.8,5.8,91,0.00,CLR,,0.00,WeatherDisplay:10.37,2013-02-26 00:45:00,
2013-02-26 00:50:00,35.5,33.1,30.66,ESE,114,4.0,4.4,91,0.00,CLR,,0.00,WeatherDisplay:10.37,2013-02-26 00:50:00,
2013-02-26 00:56:00,35.5,33.1,30.66,SE,127,3.5,3.5,91,0.00,CLR,,0.00,WeatherDisplay:10.37,2013-02-26 00:56:00,
2013-02-26 01:01:00,35.6,33.0,30.66,SE,146,5.0,5.0,90,0.00,CLR,,0.00,WeatherDisplay:10.37,2013-02-26 01:01:00,
2013-02-26 01:07:00,35.6,33.0,30.66,SE,130,3.5,3.5,90,0.00,CLR,,0.00,WeatherDisplay:10.37,2013-02-26 01:07:00,
2013-02-26 01:12:00,35.4,32.8,30.66,SE,124,3.5,3.5,90,0.00,CLR,,0.00,WeatherDisplay:10.37,2013-02-26 01:12:00,
2013-02-26 01:17:00,35.3,32.7,30.66,East,93,1.2,1.2,90,0.00,CLR,,0.00,WeatherDisplay:10.37,2013-02-26 01:17:00,
2013-02-26 01:22:00,35.1,32.5,30.66,ENE,75,2.3,2.3,90,0.00,CLR,,0.00,WeatherDisplay:10.37,2013-02-26 01:22:00,
2013-02-26 01:27:00,34.8,32.2,30.66,ENE,75,1.2,1.2,90,0.00,CLR,,0.00,WeatherDisplay:10.37,2013-02-26 01:27:00,
2013-02-26 01:32:00,34.5,31.9,30.66,East,98,2.3,2.3,90,0.00,CLR,,0.00,WeatherDisplay:10.37,2013-02-26 01:32:00,
2013-02-26 01:37:00,34.5,32.1,30.66,East,98,1.2,1.2,91,0.00,CLR,,0.00,WeatherDisplay:10.37,2013-02-26 01:37:00,
2013-02-26 01:42:00,34.1,31.5,30.66,East,97,0.0,0.0,90,0.00,CLR,,0.00,WeatherDisplay:10.37,2013-02-26 01:42:00,
2013-02-26 01:47:00,33.7,31.4,30.66,East,97,0.0,0.0,91,0.00,CLR,,0.00,WeatherDisplay:10.37,2013-02-26 01:47:00,
2013-02-26 01:52:00,33.4,31.1,30.66,East,98,0.0,0.0,91,0.00,CLR,,0.00,WeatherDisplay:10.37,2013-02-26 01:52:00,
2013-02-26 01:57:00,33.1,30.8,30.66,East,97,0.0,0.0,91,0.00,CLR,,0.00,WeatherDisplay:10.37,2013-02-26 01:57:00,
2013-02-26 02:02:00,33.4,31.3,30.66,East,101,3.5,3.5,92,0.00,CLR,,0.00,WeatherDisplay:10.37,2013-02-26 02:02:00,
2013-02-26 02:07:00,33.2,30.9,30.66,North,6,1.2,1.2,91,0.00,CLR,,0.00,WeatherDisplay:10.37,2013-02-26 02:07:00,
2013-02-26 02:12:00,32.9,30.8,30.66,ENE,77,3.5,3.5,92,0.00,CLR,,0.00,WeatherDisplay:10.37,2013-02-26 02:12:00,
2013-02-26 02:17:00,32.9,30.8,30.66,NE,54,2.3,2.3,92,0.00,CLR,,0.00,WeatherDisplay:10.37,2013-02-26 02:17:00,
2013-02-26 02:22:00,32.6,30.5,30.66,NNE,27,2.3,2.3,92,0.00,CLR,,0.00,WeatherDisplay:10.37,2013-02-26 02:22:00,
2013-02-26 02:27:00,32.9,31.1,30.66,ENE,61,2.3,2.3,93,0.00,CLR,,0.00,WeatherDisplay:10.37,2013-02-26 02:27:00,
2013-02-26 02:32:00,33.4,31.6,30.66,ENE,67,2.3,2.3,93,0.00,CLR,,0.00,WeatherDisplay:10.37,2013-02-26 02:32:00,
2013-02-26 02:37:00,33.7,31.9,30.66,East,88,2.3,2.3,93,0.00,CLR,,0.00,WeatherDisplay:10.37,2013-02-26 02:37:00,
2013-02-26 02:42:00,33.8,32.0,30.66,ENE,71,2.3,2.3,93,0.00,CLR,,0.00,WeatherDisplay:10.37,2013-02-26 02:42:00,
2013-02-26 02:47:00,34.0,32.2,30.66,East,91,4.0,4.0,93,0.00,CLR,,0.00,WeatherDisplay:10.37,2013-02-26 02:47:00,
2013-02-26 02:52:00,34.1,32.3,30.66,ESE,123,4.6,4.6,93,0.00,CLR,,0.00,WeatherDisplay:10.37,2013-02-26 02:52:00,
2013-02-26 02:58:00,34.1,32.0,30.66,East,100,4.0,4.0,92,0.00,CLR,,0.00,WeatherDisplay:10.37,2013-02-26 02:58:00,
2013-02-26 03:03:00,34.2,32.1,30.65,ESE,119,4.6,4.6,92,0.00,CLR,,0.00,WeatherDisplay:10.37,2013-02-26 03:03:00,
2013-02-26 03:08:00,34.1,32.0,30.65,ENE,57,5.8,5.8,92,0.00,CLR,,0.00,WeatherDisplay:10.37,2013-02-26 03:08:00,
2013-02-26 03:13:00,34.2,32.4,30.65,East,100,4.6,4.6,93,0.00,CLR,,0.00,WeatherDisplay:10.37,2013-02-26 03:13:00,
2013-02-26 03:18:00,34.4,32.6,30.65,SE,130,4.6,4.6,93,0.00,CLR,,0.00,WeatherDisplay:10.37,2013-02-26 03:18:00,
2013-02-26 03:23:00,34.6,32.8,30.65,ESE,102,5.0,5.0,93,0.00,CLR,,0.00,WeatherDisplay:10.37,2013-02-26 03:23:00,
2013-02-26 03:28:00,34.7,32.6,30.65,ESE,110,4.6,4.6,92,0.00,CLR,,0.00,WeatherDisplay:10.37,2013-02-26 03:28:00,
2013-02-26 03:33:00,34.7,32.6,30.65,East,91,6.9,6.9,92,0.00,CLR,,0.00,WeatherDisplay:10.37,2013-02-26 03:33:00,
2013-02-26 03:38:00,34.7,32.6,30.65,East,96,4.6,4.6,92,0.00,CLR,,0.00,WeatherDisplay:10.37,2013-02-26 03:38:00,
2013-02-26 03:43:00,34.7,32.6,30.65,East,99,5.8,5.8,92,0.00,CLR,,0.00,WeatherDisplay:10.37,2013-02-26 03:43:00,
2013-02-26 03:48:00,34.9,32.8,30.65,East,82,4.6,4.6,92,0.00,CLR,,0.00,WeatherDisplay:10.37,2013-02-26 03:48:00,
2013-02-26 03:53:00,34.9,32.5,30.65,ENE,57,3.5,3.5,91,0.00,CLR,,0.00,WeatherDisplay:10.37,2013-02-26 03:53:00,
2013-02-26 03:59:00,34.1,31.5,30.65,North,351,2.3,2.3,90,0.00,CLR,,0.00,WeatherDisplay:10.37,2013-02-26 03:59:00,
2013-02-26 04:04:00,33.5,31.2,30.65,NNE,20,0.0,0.0,91,0.00,CLR,,0.00,WeatherDisplay:10.37,2013-02-26 04:04:00,
2013-02-26 04:09:00,33.1,31.0,30.65,ESE,105,2.3,2.3,92,0.00,CLR,,0.00,WeatherDisplay:10.37,2013-02-26 04:09:00,
2013-02-26 04:14:00,33.4,31.6,30.65,NNW,338,2.3,2.3,93,0.00,CLR,,0.00,WeatherDisplay:10.37,2013-02-26 04:14:00,
2013-02-26 04:19:00,32.8,30.7,30.65,NNW,347,3.5,3.5,92,0.00,CLR,,0.00,WeatherDisplay:10.37,2013-02-26 04:19:00,
2013-02-26 04:24:00,32.5,30.4,30.65,NNE,18,3.5,3.5,92,0.00,CLR,,0.00,WeatherDisplay:10.37,2013-02-26 04:24:00,
2013-02-26 04:29:00,32.4,30.6,30.66,North,9,3.5,3.5,93,0.00,CLR,,0.00,WeatherDisplay:10.37,2013-02-26 04:29:00,
2013-02-26 04:34:00,32.4,30.6,30.66,NNW,327,2.3,2.3,93,0.00,CLR,,0.00,WeatherDisplay:10.37,2013-02-26 04:34:00,
2013-02-26 04:39:00,32.3,30.5,30.66,NE,51,3.5,3.5,93,0.00,CLR,,0.00,WeatherDisplay:10.37,2013-02-26 04:39:00,
2013-02-26 04:44:00,32.2,30.4,30.66,NNW,340,2.0,2.0,93,0.00,CLR,,0.00,WeatherDisplay:10.37,2013-02-26 04:44:00,
2013-02-26 04:49:00,32.1,30.3,30.66,NNW,345,2.3,2.3,93,0.00,CLR,,0.00,WeatherDisplay:10.37,2013-02-26 04:49:00,
2013-02-26 04:54:00,32.5,31.0,30.66,ENE,62,3.5,3.5,94,0.00,CLR,,0.00,WeatherDisplay:10.37,2013-02-26 04:54:00,
2013-02-26 05:00:00,33.0,31.5,30.65,North,358,3.0,3.0,94,0.00,CLR,,0.00,WeatherDisplay:10.37,2013-02-26 05:00:00,
2013-02-26 05:05:00,32.5,30.7,30.65,NW,321,1.2,1.2,93,0.00,CLR,,0.00,WeatherDisplay:10.37,2013-02-26 05:05:00,
2013-02-26 05:10:00,32.2,30.4,30.65,NW,320,1.2,1.2,93,0.00,CLR,,0.00,WeatherDisplay:10.37,2013-02-26 05:10:00,
2013-02-26 05:15:00,31.7,29.9,30.65,NNE,15,2.3,2.3,93,0.00,CLR,,0.00,WeatherDisplay:10.37,2013-02-26 05:15:00,
2013-02-26 05:20:00,32.1,30.6,30.66,NNW,347,2.0,2.0,94,0.00,CLR,,0.00,WeatherDisplay:10.37,2013-02-26 05:20:00,
2013-02-26 05:25:00,32.7,31.4,30.65,NNE,12,3.5,3.5,95,0.00,CLR,,0.00,WeatherDisplay:10.37,2013-02-26 05:25:00,
2013-02-26 05:30:00,32.7,31.2,30.65,NNW,345,3.5,3.5,94,0.00,CLR,,0.00,WeatherDisplay:10.37,2013-02-26 05:30:00,
2013-02-26 05:36:00,32.5,30.7,30.66,NNE,12,2.3,2.3,93,0.00,CLR,,0.00,WeatherDisplay:10.37,2013-02-26 05:36:00,
2013-02-26 05:41:00,32.5,30.7,30.66,NE,41,2.3,2.3,93,0.00,CLR,,0.00,WeatherDisplay:10.37,2013-02-26 05:41:00,
2013-02-26 05:46:00,32.9,31.4,30.66,ENE,61,3.5,3.5,94,0.00,CLR,,0.00,WeatherDisplay:10.37,2013-02-26 05:46:00,
2013-02-26 05:51:00,32.9,31.4,30.66,NE,36,3.5,3.5,94,0.00,CLR,,0.00,WeatherDisplay:10.37,2013-02-26 05:51:00,
2013-02-26 05:56:00,32.4,30.6,30.66,North,352,1.2,1.2,93,0.00,CLR,,0.00,WeatherDisplay:10.37,2013-02-26 05:56:00,
2013-02-26 06:01:00,31.8,30.0,30.66,North,349,2.0,2.0,93,0.00,CLR,,0.00,WeatherDisplay:10.37,2013-02-26 06:01:00,
2013-02-26 06:06:00,31.8,30.0,30.66,North,358,1.2,1.2,93,0.00,CLR,,0.00,WeatherDisplay:10.37,2013-02-26 06:06:00,
2013-02-26 06:11:00,31.7,30.2,30.66,NE,40,3.5,3.5,94,0.00,CLR,,0.00,WeatherDisplay:10.37,2013-02-26 06:11:00,
2013-02-26 06:16:00,32.1,30.6,30.66,NNE,25,6.9,6.9,94,0.00,CLR,,0.00,WeatherDisplay:10.37,2013-02-26 06:16:00,
2013-02-26 06:21:00,32.8,31.3,30.67,ENE,77,4.6,4.6,94,0.00,CLR,,0.00,WeatherDisplay:10.37,2013-02-26 06:21:00,
2013-02-26 06:26:00,33.1,31.6,30.67,East,100,5.8,5.8,94,0.00,CLR,,0.00,WeatherDisplay:10.37,2013-02-26 06:26:00,
2013-02-26 06:31:00,33.3,31.8,30.67,ESE,103,4.6,4.6,94,0.00,CLR,,0.00,WeatherDisplay:10.37,2013-02-26 06:31:00,
2013-02-26 06:36:00,33.4,31.6,30.67,ESE,106,6.9,6.9,93,0.00,CLR,,0.00,WeatherDisplay:10.37,2013-02-26 06:36:00,
2013-02-26 06:41:00,33.5,31.7,30.67,East,95,4.6,4.6,93,0.00,CLR,,0.00,WeatherDisplay:10.37,2013-02-26 06:41:00,
2013-02-26 06:46:00,33.5,31.7,30.67,ESE,105,4.6,4.6,93,0.00,CLR,,0.00,WeatherDisplay:10.37,2013-02-26 06:46:00,
2013-02-26 06:51:00,33.6,31.8,30.67,ESE,110,5.0,5.0,93,0.00,CLR,,0.00,WeatherDisplay:10.37,2013-02-26 06:51:00,
2013-02-26 06:56:00,33.6,31.8,30.67,East,81,7.0,7.0,93,0.00,CLR,,0.00,WeatherDisplay:10.37,2013-02-26 06:56:00,
2013-02-26 07:01:00,33.6,31.8,30.67,SE,138,6.9,6.9,93,0.00,CLR,,0.00,WeatherDisplay:10.37,2013-02-26 07:01:00,
2013-02-26 07:06:00,33.7,31.9,30.68,ENE,75,5.8,5.8,93,0.00,CLR,,0.00,WeatherDisplay:10.37,2013-02-26 07:06:00,
2013-02-26 07:11:00,33.7,31.9,30.68,ESE,123,4.6,4.6,93,0.00,CLR,,0.00,WeatherDisplay:10.37,2013-02-26 07:11:00,
2013-02-26 07:16:00,33.7,31.9,30.68,ESE,110,4.0,4.0,93,0.00,CLR,,0.00,WeatherDisplay:10.37,2013-02-26 07:16:00,
2013-02-26 07:21:00,33.8,32.0,30.68,ENE,70,7.0,7.0,93,0.00,CLR,,0.00,WeatherDisplay:10.37,2013-02-26 07:21:00,
2013-02-26 07:26:00,33.7,31.9,30.68,SE,129,6.9,6.9,93,0.00,CLR,,0.00,WeatherDisplay:10.37,2013-02-26 07:26:00,
2013-02-26 07:31:00,33.8,32.0,30.68,North,360,3.5,3.5,93,0.00,CLR,,0.00,WeatherDisplay:10.37,2013-02-26 07:31:00,
2013-02-26 07:36:00,33.6,31.8,30.68,NNW,345,0.0,0.2,93,0.00,CLR,,0.00,WeatherDisplay:10.37,2013-02-26 07:36:00,
2013-02-26 07:41:00,33.7,31.9,30.68,NNW,347,0.0,0.0,93,0.00,CLR,,0.00,WeatherDisplay:10.37,2013-02-26 07:41:00,
2013-02-26 07:46:00,34.4,32.6,30.69,ESE,105,4.0,4.0,93,0.00,CLR,,0.00,WeatherDisplay:10.37,2013-02-26 07:46:00,
2013-02-26 07:51:00,35.0,33.2,30.69,SSE,155,4.6,4.6,93,0.00,CLR,,0.00,WeatherDisplay:10.37,2013-02-26 07:51:00,
2013-02-26 07:56:00,35.1,33.0,30.69,NE,44,4.0,4.0,92,0.00,CLR,,0.00,WeatherDisplay:10.37,2013-02-26 07:56:00,
2013-02-26 08:01:00,35.2,32.8,30.69,NNW,332,2.3,2.3,91,0.00,CLR,,0.00,WeatherDisplay:10.37,2013-02-26 08:01:00,
2013-02-26 08:06:00,35.4,32.8,30.69,WNW,297,2.3,2.3,90,0.00,CLR,,0.00,WeatherDisplay:10.37,2013-02-26 08:06:00,
2013-02-26 08:11:00,35.3,32.7,30.69,West,271,4.6,4.6,90,0.00,CLR,,0.00,WeatherDisplay:10.37,2013-02-26 08:11:00,
2013-02-26 08:16:00,35.3,32.9,30.69,WNW,293,2.3,2.3,91,0.00,CLR,,0.00,WeatherDisplay:10.37,2013-02-26 08:16:00,
2013-02-26 08:21:00,35.3,32.9,30.69,WNW,287,3.5,3.5,91,0.00,CLR,,0.00,WeatherDisplay:10.37,2013-02-26 08:21:00,
2013-02-26 08:26:00,35.5,33.1,30.69,WNW,290,3.5,3.5,91,0.00,CLR,,0.00,WeatherDisplay:10.37,2013-02-26 08:26:00,
2013-02-26 08:31:00,36.1,34.0,30.69,WNW,283,3.5,3.5,92,0.00,CLR,,0.00,WeatherDisplay:10.37,2013-02-26 08:31:00,
2013-02-26 08:36:00,36.2,33.5,30.69,WNW,293,3.5,3.5,90,0.00,CLR,,0.00,WeatherDisplay:10.37,2013-02-26 08:36:00,
2013-02-26 08:41:00,36.1,33.2,30.69,West,279,3.5,3.5,89,0.00,CLR,,0.00,WeatherDisplay:10.37,2013-02-26 08:41:00,
2013-02-26 08:46:00,36.2,33.0,30.69,West,280,5.8,5.8,88,0.00,CLR,,0.00,WeatherDisplay:10.37,2013-02-26 08:46:00,
2013-02-26 08:51:00,36.7,34.0,30.69,SSW,198,3.5,3.5,90,0.00,CLR,,0.00,WeatherDisplay:10.37,2013-02-26 08:51:00,
2013-02-26 08:56:00,36.9,34.0,30.69,SSW,199,2.3,2.3,89,0.00,CLR,,0.00,WeatherDisplay:10.37,2013-02-26 08:56:00,
2013-02-26 09:01:00,37.1,34.2,30.69,West,267,6.0,6.0,89,0.00,CLR,,0.00,WeatherDisplay:10.37,2013-02-26 09:01:00,
2013-02-26 09:06:00,37.4,33.9,30.69,ESE,103,3.5,3.5,87,0.00,CLR,,0.00,WeatherDisplay:10.37,2013-02-26 09:06:00,
2013-02-26 09:11:00,37.6,34.1,30.69,SW,233,0.0,0.0,87,0.00,CLR,,0.00,WeatherDisplay:10.37,2013-02-26 09:11:00,
2013-02-26 09:16:00,38.0,34.5,30.69,WSW,244,1.2,1.2,87,0.00,CLR,,0.00,WeatherDisplay:10.37,2013-02-26 09:16:00,
2013-02-26 09:21:00,38.5,35.0,30.69,SE,136,3.5,3.5,87,0.00,CLR,,0.00,WeatherDisplay:10.37,2013-02-26 09:21:00,
2013-02-26 09:26:00,39.0,35.2,30.69,East,88,3.5,3.5,86,0.00,CLR,,0.00,WeatherDisplay:10.37,2013-02-26 09:26:00,
2013-02-26 09:31:00,39.2,35.1,30.69,East,93,4.6,4.6,85,0.00,CLR,,0.00,WeatherDisplay:10.37,2013-02-26 09:31:00,
2013-02-26 09:36:00,39.1,35.0,30.69,SE,140,6.9,6.9,85,0.00,CLR,,0.00,WeatherDisplay:10.37,2013-02-26 09:36:00,
2013-02-26 09:41:00,39.2,35.1,30.69,East,91,9.2,9.2,85,0.00,CLR,,0.00,WeatherDisplay:10.37,2013-02-26 09:41:00,
2013-02-26 09:46:00,39.4,35.0,30.69,NNW,337,6.0,6.5,84,0.00,CLR,,0.00,WeatherDisplay:10.37,2013-02-26 09:46:00,
2013-02-26 09:51:00,39.6,34.9,30.69,NNE,13,9.2,9.2,83,0.00,CLR,,0.00,WeatherDisplay:10.37,2013-02-26 09:51:00,
2013-02-26 09:56:00,39.7,35.0,30.69,NNE,18,10.4,10.4,83,0.00,CLR,,0.00,WeatherDisplay:10.37,2013-02-26 09:56:00,
2013-02-26 10:01:00,39.8,35.1,30.69,NNW,344,5.8,5.8,83,0.00,CLR,,0.00,WeatherDisplay:10.37,2013-02-26 10:01:00,
2013-02-26 10:06:00,39.9,35.2,30.69,NNE,32,9.2,9.2,83,0.00,CLR,,0.00,WeatherDisplay:10.37,2013-02-26 10:06:00,
2013-02-26 10:11:00,40.0,35.3,30.69,East,82,9.2,9.2,83,0.00,CLR,,0.00,WeatherDisplay:10.37,2013-02-26 10:11:00,
2013-02-26 10:17:00,40.3,35.5,30.69,North,354,3.5,3.5,83,0.00,CLR,,0.00,WeatherDisplay:10.37,2013-02-26 10:17:00,
2013-02-26 10:22:00,40.4,35.3,30.69,NNW,347,5.8,5.8,82,0.00,CLR,,0.00,WeatherDisplay:10.37,2013-02-26 10:22:00,
2013-02-26 10:27:00,40.7,35.6,30.69,NNE,27,11.5,11.5,82,0.00,CLR,,0.00,WeatherDisplay:10.37,2013-02-26 10:27:00,
2013-02-26 10:32:00,40.9,35.5,30.69,ENE,73,11.0,11.0,81,0.00,CLR,,0.00,WeatherDisplay:10.37,2013-02-26 10:32:00,
2013-02-26 10:37:00,41.0,35.6,30.69,NNW,348,11.5,11.5,81,0.00,CLR,,0.00,WeatherDisplay:10.37,2013-02-26 10:37:00,
2013-02-26 10:42:00,41.2,35.8,30.69,ENE,57,11.5,11.5,81,0.00,CLR,,0.00,WeatherDisplay:10.37,2013-02-26 10:42:00,
2013-02-26 10:47:00,41.5,35.8,30.69,NE,40,11.5,11.5,80,0.00,CLR,,0.00,WeatherDisplay:10.37,2013-02-26 10:47:00,
2013-02-26 10:52:00,41.8,36.1,30.69,East,82,11.0,11.0,80,0.00,CLR,,0.00,WeatherDisplay:10.37,2013-02-26 10:52:00,
2013-02-26 10:57:00,41.8,35.8,30.69,NNE,25,11.5,11.5,79,0.00,CLR,,0.00,WeatherDisplay:10.37,2013-02-26 10:57:00,
2013-02-26 11:02:00,41.9,35.9,30.69,ENE,70,6.0,6.0,79,0.00,CLR,,0.00,WeatherDisplay:10.37,2013-02-26 11:02:00,
2013-02-26 11:07:00,42.1,36.1,30.69,ENE,74,10.4,10.4,79,0.00,CLR,,0.00,WeatherDisplay:10.37,2013-02-26 11:07:00,
2013-02-26 11:12:00,42.2,35.8,30.69,North,3,11.5,11.5,78,0.00,CLR,,0.00,WeatherDisplay:10.37,2013-02-26 11:12:00,
2013-02-26 11:17:00,42.4,36.0,30.69,North,3,11.5,11.5,78,0.00,CLR,,0.00,WeatherDisplay:10.37,2013-02-26 11:17:00,
2013-02-26 11:22:00,42.4,35.7,30.69,NNE,21,11.5,11.5,77,0.00,CLR,,0.00,WeatherDisplay:10.37,2013-02-26 11:22:00,
2013-02-26 11:27:00,42.4,36.0,30.69,NE,54,9.2,9.2,78,0.00,CLR,,0.00,WeatherDisplay:10.37,2013-02-26 11:27:00,
2013-02-26 11:32:00,42.5,35.8,30.69,East,93,16.1,16.1,77,0.00,CLR,,0.00,WeatherDisplay:10.37,2013-02-26 11:32:00,
2013-02-26 11:37:00,42.6,35.9,30.69,North,1,13.8,13.8,77,0.00,CLR,,0.00,WeatherDisplay:10.37,2013-02-26 11:37:00,
2013-02-26 11:42:00,42.7,36.0,30.68,ENE,66,12.7,12.7,77,0.00,CLR,,0.00,WeatherDisplay:10.37,2013-02-26 11:42:00,
2013-02-26 11:47:00,42.8,36.1,30.69,NW,319,10.4,10.4,77,0.00,CLR,,0.00,WeatherDisplay:10.37,2013-02-26 11:47:00,
2013-02-26 11:52:00,43.2,36.1,30.69,NE,36,15.0,15.0,76,0.00,CLR,,0.00,WeatherDisplay:10.37,2013-02-26 11:52:00,
2013-02-26 11:57:00,43.2,36.1,30.69,North,354,10.4,10.4,76,0.00,CLR,,0.00,WeatherDisplay:10.37,2013-02-26 11:57:00,
2013-02-26 12:02:00,43.4,36.3,30.68,ENE,73,6.9,6.9,76,0.00,CLR,,0.00,WeatherDisplay:10.37,2013-02-26 12:02:00,
2013-02-26 12:07:00,43.3,36.2,30.68,ENE,72,15.0,15.0,76,0.00,CLR,,0.00,WeatherDisplay:10.37,2013-02-26 12:07:00,
2013-02-26 12:12:00,43.2,36.1,30.68,NE,50,11.5,11.5,76,0.00,CLR,,0.00,WeatherDisplay:10.37,2013-02-26 12:12:00,
2013-02-26 12:17:00,43.3,36.2,30.68,NE,51,10.0,10.0,76,0.00,CLR,,0.00,WeatherDisplay:10.37,2013-02-26 12:17:00,
2013-02-26 12:22:00,43.6,36.5,30.68,NNE,29,11.5,11.5,76,0.00,CLR,,0.00,WeatherDisplay:10.37,2013-02-26 12:22:00,
2013-02-26 12:27:00,43.6,36.5,30.68,NE,36,12.7,12.7,76,0.00,CLR,,0.00,WeatherDisplay:10.37,2013-02-26 12:27:00,
2013-02-26 12:32:00,43.7,36.6,30.68,NNW,347,13.8,13.8,76,0.00,CLR,,0.00,WeatherDisplay:10.37,2013-02-26 12:32:00,
2013-02-26 12:37:00,43.9,36.8,30.68,ENE,71,17.0,17.0,76,0.00,CLR,,0.00,WeatherDisplay:10.37,2013-02-26 12:37:00,
2013-02-26 12:42:00,43.8,36.4,30.68,ENE,60,11.5,11.5,75,0.00,CLR,,0.00,WeatherDisplay:10.37,2013-02-26 12:42:00,
2013-02-26 12:47:00,44.0,36.6,30.68,NE,52,13.8,13.8,75,0.00,CLR,,0.00,WeatherDisplay:10.37,2013-02-26 12:47:00,
2013-02-26 12:52:00,44.0,36.6,30.67,ENE,74,13.8,13.8,75,0.00,CLR,,0.00,WeatherDisplay:10.37,2013-02-26 12:52:00,
2013-02-26 12:57:00,44.4,37.0,30.67,ENE,57,11.5,11.5,75,0.00,CLR,,0.00,WeatherDisplay:10.37,2013-02-26 12:57:00,
2013-02-26 13:02:00,44.4,37.0,30.67,East,91,11.5,11.5,75,0.00,CLR,,0.00,WeatherDisplay:10.37,2013-02-26 13:02:00,
2013-02-26 13:07:00,44.6,36.8,30.66,East,88,10.4,10.4,74,0.00,CLR,,0.00,WeatherDisplay:10.37,2013-02-26 13:07:00,
2013-02-26 13:12:00,44.8,36.7,30.67,NNE,32,12.7,12.7,73,0.00,CLR,,0.00,WeatherDisplay:10.37,2013-02-26 13:12:00,
2013-02-26 13:17:00,45.2,37.1,30.67,ENE,63,8.1,8.1,73,0.00,CLR,,0.00,WeatherDisplay:10.37,2013-02-26 13:17:00,
2013-02-26 13:22:00,45.4,36.9,30.66,ENE,71,12.0,12.0,72,0.00,CLR,,0.00,WeatherDisplay:10.37,2013-02-26 13:22:00,
2013-02-26 13:27:00,45.4,36.5,30.66,East,79,11.5,11.5,71,0.00,CLR,,0.00,WeatherDisplay:10.37,2013-02-26 13:27:00,
2013-02-26 13:32:00,45.4,36.5,30.67,ESE,103,12.7,12.7,71,0.00,CLR,,0.00,WeatherDisplay:10.37,2013-02-26 13:32:00,
2013-02-26 13:37:00,45.6,36.4,30.66,East,88,10.4,10.4,70,0.00,CLR,,0.00,WeatherDisplay:10.37,2013-02-26 13:37:00,
2013-02-26 13:42:00,45.7,36.1,30.66,ENE,72,13.8,13.8,69,0.00,CLR,,0.00,WeatherDisplay:10.37,2013-02-26 13:42:00,
2013-02-26 13:47:00,45.7,36.5,30.66,NE,54,9.2,9.2,70,0.00,CLR,,0.00,WeatherDisplay:10.37,2013-02-26 13:47:00,
2013-02-26 13:52:00,45.9,36.7,30.66,East,82,11.5,11.5,70,0.00,CLR,,0.00,WeatherDisplay:10.37,2013-02-26 13:52:00,
2013-02-26 13:57:00,45.9,36.3,30.66,ENE,70,13.8,13.8,69,0.00,CLR,,0.00,WeatherDisplay:10.37,2013-02-26 13:57:00,
2013-02-26 14:02:00,46.2,37.0,30.65,NNE,29,11.5,11.5,70,0.00,CLR,,0.00,WeatherDisplay:10.37,2013-02-26 14:02:00,
2013-02-26 14:07:00,46.4,36.4,30.66,NE,37,11.5,11.5,68,0.00,CLR,,0.00,WeatherDisplay:10.37,2013-02-26 14:07:00,
2013-02-26 14:12:00,46.3,36.3,30.66,ENE,78,11.5,11.5,68,0.00,CLR,,0.00,WeatherDisplay:10.37,2013-02-26 14:12:00,
2013-02-26 14:17:00,46.3,36.3,30.66,ENE,72,10.4,10.4,68,0.00,CLR,,0.00,WeatherDisplay:10.37,2013-02-26 14:17:00,
2013-02-26 14:22:00,46.5,36.5,30.66,NE,50,11.5,11.5,68,0.00,CLR,,0.00,WeatherDisplay:10.37,2013-02-26 14:22:00,
2013-02-26 14:27:00,46.9,36.1,30.65,NE,54,11.5,11.5,66,0.00,CLR,,0.00,WeatherDisplay:10.37,2013-02-26 14:27:00,
2013-02-26 14:32:00,47.1,36.3,30.65,NE,40,11.5,11.5,66,0.00,CLR,,0.00,WeatherDisplay:10.37,2013-02-26 14:32:00,
2013-02-26 14:38:00,47.0,36.6,30.66,NNE,12,11.5,11.5,67,0.00,CLR,,0.00,WeatherDisplay:10.37,2013-02-26 14:38:00,
2013-02-26 14:43:00,47.1,36.7,30.65,NNE,25,10.4,10.4,67,0.00,CLR,,0.00,WeatherDisplay:10.37,2013-02-26 14:43:00,
2013-02-26 14:48:00,47.0,37.0,30.65,ENE,64,11.5,11.5,68,0.00,CLR,,0.00,WeatherDisplay:10.37,2013-02-26 14:48:00,
2013-02-26 14:53:00,47.0,37.0,30.65,East,88,9.2,9.2,68,0.00,CLR,,0.00,WeatherDisplay:10.37,2013-02-26 14:53:00,
2013-02-26 14:58:00,47.0,36.6,30.65,NE,47,11.5,11.5,67,0.00,CLR,,0.00,WeatherDisplay:10.37,2013-02-26 14:58:00,
2013-02-26 15:03:00,47.1,36.7,30.65,East,96,11.5,11.5,67,0.00,CLR,,0.00,WeatherDisplay:10.37,2013-02-26 15:03:00,
2013-02-26 15:08:00,47.1,37.1,30.65,ENE,67,9.2,9.2,68,0.00,CLR,,0.00,WeatherDisplay:10.37,2013-02-26 15:08:00,
2013-02-26 15:13:00,47.3,37.3,30.65,ENE,75,10.4,10.4,68,0.00,CLR,,0.00,WeatherDisplay:10.37,2013-02-26 15:13:00,
2013-02-26 15:18:00,47.3,37.3,30.65,ENE,64,11.5,11.5,68,0.00,CLR,,0.00,WeatherDisplay:10.37,2013-02-26 15:18:00,
2013-02-26 15:23:00,47.3,36.9,30.65,NE,50,8.1,8.1,67,0.00,CLR,,0.00,WeatherDisplay:10.37,2013-02-26 15:23:00,
2013-02-26 15:28:00,47.5,36.7,30.65,NE,45,11.5,11.5,66,0.00,CLR,,0.00,WeatherDisplay:10.37,2013-02-26 15:28:00,
2013-02-26 15:33:00,47.6,37.2,30.65,East,100,9.2,9.2,67,0.00,CLR,,0.00,WeatherDisplay:10.37,2013-02-26 15:33:00,
2013-02-26 15:38:00,47.6,37.2,30.65,NE,47,12.7,12.7,67,0.00,CLR,,0.00,WeatherDisplay:10.37,2013-02-26 15:38:00,
2013-02-26 15:43:00,47.6,37.2,30.65,NE,47,6.0,6.0,67,0.00,CLR,,0.00,WeatherDisplay:10.37,2013-02-26 15:43:00,
2013-02-26 15:48:00,47.6,36.8,30.64,ENE,61,13.8,13.8,66,0.00,CLR,,0.00,WeatherDisplay:10.37,2013-02-26 15:48:00,
2013-02-26 15:53:00,47.5,37.1,30.64,East,79,10.4,10.4,67,0.00,CLR,,0.00,WeatherDisplay:10.37,2013-02-26 15:53:00,
2013-02-26 15:58:00,47.6,37.2,30.65,ENE,57,11.0,11.0,67,0.00,CLR,,0.00,WeatherDisplay:10.37,2013-02-26 15:58:00,
2013-02-26 16:03:00,47.5,37.1,30.64,ENE,65,16.1,16.1,67,0.00,CLR,,0.00,WeatherDisplay:10.37,2013-02-26 16:03:00,
2013-02-26 16:08:00,47.3,36.9,30.64,NE,51,11.5,11.5,67,0.00,CLR,,0.00,WeatherDisplay:10.37,2013-02-26 16:08:00,
2013-02-26 16:13:00,47.3,36.9,30.64,ENE,65,12.7,12.7,67,0.00,CLR,,0.00,WeatherDisplay:10.37,2013-02-26 16:13:00,
2013-02-26 16:18:00,47.3,37.3,30.64,SE,133,8.1,8.1,68,0.00,CLR,,0.00,WeatherDisplay:10.37,2013-02-26 16:18:00,
2013-02-26 16:23:00,47.3,37.3,30.64,NE,50,8.1,8.1,68,0.00,CLR,,0.00,WeatherDisplay:10.37,2013-02-26 16:23:00,
2013-02-26 16:28:00,47.2,37.2,30.64,NE,53,10.4,10.4,68,0.00,CLR,,0.00,WeatherDisplay:10.37,2013-02-26 16:28:00,
2013-02-26 16:33:00,47.2,37.2,30.64,NNE,27,13.8,13.8,68,0.00,CLR,,0.00,WeatherDisplay:10.37,2013-02-26 16:33:00,
2013-02-26 16:38:00,47.0,36.6,30.64,NE,50,13.8,13.8,67,0.00,CLR,,0.00,WeatherDisplay:10.37,2013-02-26 16:38:00,
2013-02-26 16:43:00,47.0,37.0,30.64,NE,43,8.1,8.1,68,0.00,CLR,,0.00,WeatherDisplay:10.37,2013-02-26 16:43:00,
2013-02-26 16:48:00,46.9,36.9,30.64,East,99,8.1,8.1,68,0.00,CLR,,0.00,WeatherDisplay:10.37,2013-02-26 16:48:00,
2013-02-26 16:53:00,46.8,36.8,30.65,East,93,9.2,9.2,68,0.00,CLR,,0.00,WeatherDisplay:10.37,2013-02-26 16:53:00,
2013-02-26 16:58:00,46.7,36.7,30.65,ENE,71,10.4,10.4,68,0.00,CLR,,0.00,WeatherDisplay:10.37,2013-02-26 16:58:00,
2013-02-26 17:03:00,46.5,36.9,30.65,East,79,8.1,8.1,69,0.00,CLR,,0.00,WeatherDisplay:10.37,2013-02-26 17:03:00,
2013-02-26 17:08:00,46.3,36.7,30.65,ENE,67,9.2,9.2,69,0.00,CLR,,0.00,WeatherDisplay:10.37,2013-02-26 17:08:00,
2013-02-26 17:13:00,46.2,37.0,30.65,NNE,33,6.9,6.9,70,0.00,CLR,,0.00,WeatherDisplay:10.37,2013-02-26 17:13:00,
2013-02-26 17:18:00,45.9,36.7,30.65,ENE,78,6.9,6.9,70,0.00,CLR,,0.00,WeatherDisplay:10.37,2013-02-26 17:18:00,
2013-02-26 17:23:00,45.4,36.9,30.65,WNW,292,6.9,6.9,72,0.00,CLR,,0.00,WeatherDisplay:10.37,2013-02-26 17:23:00,
2013-02-26 17:28:00,45.0,36.9,30.65,NE,51,5.8,5.8,73,0.00,CLR,,0.00,WeatherDisplay:10.37,2013-02-26 17:28:00,
2013-02-26 17:33:00,44.6,36.5,30.65,SE,140,4.6,4.6,73,0.00,CLR,,0.00,WeatherDisplay:10.37,2013-02-26 17:33:00,
2013-02-26 17:38:00,44.3,36.9,30.66,East,98,6.0,6.0,75,0.00,CLR,,0.00,WeatherDisplay:10.37,2013-02-26 17:38:00,
2013-02-26 17:43:00,44.1,37.0,30.65,NE,47,6.9,6.9,76,0.00,CLR,,0.00,WeatherDisplay:10.37,2013-02-26 17:43:00,
2013-02-26 17:48:00,43.9,37.2,30.66,East,85,8.1,8.1,77,0.00,CLR,,0.00,WeatherDisplay:10.37,2013-02-26 17:48:00,
2013-02-26 17:53:00,43.6,37.2,30.66,ESE,102,9.2,9.2,78,0.00,CLR,,0.00,WeatherDisplay:10.37,2013-02-26 17:53:00,
2013-02-26 17:58:00,43.5,37.1,30.66,ENE,68,5.8,5.8,78,0.00,CLR,,0.00,WeatherDisplay:10.37,2013-02-26 17:58:00,
2013-02-26 18:03:00,43.2,37.1,30.66,NNW,348,3.5,3.5,79,0.00,CLR,,0.00,WeatherDisplay:10.37,2013-02-26 18:03:00,
2013-02-26 18:08:00,43.1,37.0,30.66,SE,134,4.6,4.6,79,0.00,CLR,,0.00,WeatherDisplay:10.37,2013-02-26 18:08:00,
2013-02-26 18:13:00,42.9,36.8,30.66,NNE,27,4.6,4.6,79,0.00,CLR,,0.00,WeatherDisplay:10.37,2013-02-26 18:13:00,
2013-02-26 18:18:00,42.8,37.1,30.67,East,93,3.5,3.5,80,0.00,CLR,,0.00,WeatherDisplay:10.37,2013-02-26 18:18:00,
2013-02-26 18:23:00,42.7,37.0,30.67,ENE,75,5.8,5.8,80,0.00,CLR,,0.00,WeatherDisplay:10.37,2013-02-26 18:23:00,
2013-02-26 18:28:00,42.6,36.9,30.67,ENE,65,6.0,6.0,80,0.00,CLR,,0.00,WeatherDisplay:10.37,2013-02-26 18:28:00,
2013-02-26 18:33:00,42.3,36.9,30.67,NE,53,5.8,5.8,81,0.00,CLR,,0.00,WeatherDisplay:10.37,2013-02-26 18:33:00,
2013-02-26 18:38:00,42.4,37.0,30.67,ENE,60,8.1,8.1,81,0.00,CLR,,0.00,WeatherDisplay:10.37,2013-02-26 18:38:00,
2013-02-26 18:43:00,42.3,36.9,30.67,East,88,9.2,9.2,81,0.00,CLR,,0.00,WeatherDisplay:10.37,2013-02-26 18:43:00,
2013-02-26 18:48:00,42.4,37.0,30.67,East,79,9.2,9.2,81,0.00,CLR,,0.00,WeatherDisplay:10.37,2013-02-26 18:48:00,
2013-02-26 18:53:00,42.5,36.8,30.67,ENE,57,9.2,9.2,80,0.00,CLR,,0.00,WeatherDisplay:10.37,2013-02-26 18:53:00,
2013-02-26 18:58:00,42.5,36.8,30.68,NE,47,10.4,10.4,80,0.00,CLR,,0.00,WeatherDisplay:10.37,2013-02-26 18:58:00,
2013-02-26 19:03:00,42.3,36.6,30.68,North,8,8.1,8.1,80,0.00,CLR,,0.00,WeatherDisplay:10.37,2013-02-26 19:03:00,
2013-02-26 19:08:00,42.0,36.6,30.68,NNE,22,4.6,4.6,81,0.00,CLR,,0.00,WeatherDisplay:10.37,2013-02-26 19:08:00,
2013-02-26 19:13:00,41.9,36.5,30.68,NE,53,5.8,5.8,81,0.00,CLR,,0.00,WeatherDisplay:10.37,2013-02-26 19:13:00,
2013-02-26 19:18:00,41.9,36.5,30.68,ENE,62,3.5,3.5,81,0.00,CLR,,0.00,WeatherDisplay:10.37,2013-02-26 19:18:00,
2013-02-26 19:23:00,41.8,36.4,30.68,SE,133,5.8,5.8,81,0.00,CLR,,0.00,WeatherDisplay:10.37,2013-02-26 19:23:00,
2013-02-26 19:28:00,41.6,36.5,30.68,East,85,5.8,5.8,82,0.00,CLR,,0.00,WeatherDisplay:10.37,2013-02-26 19:28:00,
2013-02-26 19:33:00,41.6,36.5,30.68,ESE,108,6.9,6.9,82,0.00,CLR,,0.00,WeatherDisplay:10.37,2013-02-26 19:33:00,
2013-02-26 19:38:00,41.5,36.4,30.68,ESE,112,8.1,8.1,82,0.00,CLR,,0.00,WeatherDisplay:10.37,2013-02-26 19:38:00,
2013-02-26 19:43:00,41.5,36.4,30.68,ESE,120,9.2,9.2,82,0.00,CLR,,0.00,WeatherDisplay:10.37,2013-02-26 19:43:00,
2013-02-26 19:48:00,41.5,36.4,30.69,SE,127,9.2,9.2,82,0.00,CLR,,0.00,WeatherDisplay:10.37,2013-02-26 19:48:00,
2013-02-26 19:53:00,41.5,36.4,30.68,ESE,105,11.5,11.5,82,0.00,CLR,,0.00,WeatherDisplay:10.37,2013-02-26 19:53:00,
2013-02-26 19:58:00,41.5,36.4,30.69,SSE,155,11.5,11.5,82,0.00,CLR,,0.00,WeatherDisplay:10.37,2013-02-26 19:58:00,
2013-02-26 20:03:00,41.5,36.4,30.69,East,91,11.5,11.5,82,0.00,CLR,,0.00,WeatherDisplay:10.37,2013-02-26 20:03:00,
2013-02-26 20:08:00,41.4,36.0,30.69,ENE,78,5.8,5.8,81,0.00,CLR,,0.00,WeatherDisplay:10.37,2013-02-26 20:08:00,
2013-02-26 20:13:00,41.4,36.3,30.69,East,93,7.0,7.0,82,0.00,CLR,,0.00,WeatherDisplay:10.37,2013-02-26 20:13:00,
2013-02-26 20:18:00,41.3,36.2,30.69,East,93,8.1,8.1,82,0.00,CLR,,0.00,WeatherDisplay:10.37,2013-02-26 20:18:00,
2013-02-26 20:23:00,41.3,36.2,30.69,East,95,8.1,8.1,82,0.00,CLR,,0.00,WeatherDisplay:10.37,2013-02-26 20:23:00,
2013-02-26 20:28:00,40.8,35.7,30.69,NE,39,2.3,2.3,82,0.00,CLR,,0.00,WeatherDisplay:10.37,2013-02-26 20:28:00,
2013-02-26 20:33:00,40.0,34.9,30.69,NW,318,2.3,2.3,82,0.00,CLR,,0.00,WeatherDisplay:10.37,2013-02-26 20:33:00,
2013-02-26 20:38:00,39.9,35.5,30.70,ESE,110,3.5,3.5,84,0.00,CLR,,0.00,WeatherDisplay:10.37,2013-02-26 20:38:00,
2013-02-26 20:43:00,40.3,35.8,30.70,ESE,123,6.9,6.9,84,0.00,CLR,,0.00,WeatherDisplay:10.37,2013-02-26 20:43:00,
2013-02-26 20:48:00,40.3,35.8,30.70,SE,134,6.0,6.0,84,0.00,CLR,,0.00,WeatherDisplay:10.37,2013-02-26 20:48:00,
2013-02-26 20:53:00,40.4,35.9,30.70,East,93,5.0,5.0,84,0.00,CLR,,0.00,WeatherDisplay:10.37,2013-02-26 20:53:00,
2013-02-26 20:58:00,39.9,35.2,30.70,ESE,108,4.0,4.0,83,0.00,CLR,,0.00,WeatherDisplay:10.37,2013-02-26 20:58:00,
2013-02-26 21:03:00,39.8,35.4,30.70,ENE,69,2.3,2.3,84,0.00,CLR,,0.00,WeatherDisplay:10.37,2013-02-26 21:03:00,
2013-02-26 21:08:00,39.2,34.8,30.70,SSW,198,2.3,2.3,84,0.00,CLR,,0.00,WeatherDisplay:10.37,2013-02-26 21:08:00,
2013-02-26 21:13:00,38.9,34.5,30.70,East,99,3.0,3.0,84,0.00,CLR,,0.00,WeatherDisplay:10.37,2013-02-26 21:13:00,
2013-02-26 21:18:00,38.7,34.6,30.70,NE,51,3.5,3.5,85,0.00,CLR,,0.00,WeatherDisplay:10.37,2013-02-26 21:18:00,
2013-02-26 21:23:00,38.3,34.2,30.70,ENE,61,2.3,2.3,85,0.00,CLR,,0.00,WeatherDisplay:10.37,2013-02-26 21:23:00,
2013-02-26 21:28:00,37.7,33.9,30.70,NNW,345,3.5,3.5,86,0.00,CLR,,0.00,WeatherDisplay:10.37,2013-02-26 21:28:00,
2013-02-26 21:33:00,37.7,34.2,30.70,NNW,334,1.2,1.2,87,0.00,CLR,,0.00,WeatherDisplay:10.37,2013-02-26 21:33:00,
2013-02-26 21:38:00,38.0,34.5,30.70,NNW,344,1.2,1.2,87,0.00,CLR,,0.00,WeatherDisplay:10.37,2013-02-26 21:38:00,
2013-02-26 21:44:00,37.4,33.6,30.70,NNW,344,2.3,2.3,86,0.00,CLR,,0.00,WeatherDisplay:10.37,2013-02-26 21:44:00,
2013-02-26 21:49:00,36.9,33.4,30.71,WNW,289,0.0,0.1,87,0.00,CLR,,0.00,WeatherDisplay:10.37,2013-02-26 21:49:00,
2013-02-26 21:54:00,36.8,33.6,30.71,North,360,3.5,3.5,88,0.00,CLR,,0.00,WeatherDisplay:10.37,2013-02-26 21:54:00,
2013-02-26 21:59:00,36.5,33.6,30.71,NW,311,1.2,1.2,89,0.00,CLR,,0.00,WeatherDisplay:10.37,2013-02-26 21:59:00,
2013-02-26 22:04:00,36.3,33.4,30.71,NW,318,1.2,0.0,89,0.00,CLR,,0.00,WeatherDisplay:10.37,2013-02-26 22:04:00,
2013-02-26 22:09:00,36.3,33.6,30.71,NW,318,1.2,1.2,90,0.00,CLR,,0.00,WeatherDisplay:10.37,2013-02-26 22:09:00,
2013-02-26 22:14:00,36.3,33.9,30.71,NW,325,0.0,0.0,91,0.00,CLR,,0.00,WeatherDisplay:10.37,2013-02-26 22:14:00,
2013-02-26 22:19:00,36.2,33.5,30.71,NW,326,0.0,0.0,90,0.00,CLR,,0.00,WeatherDisplay:10.37,2013-02-26 22:19:00,
2013-02-26 22:24:00,36.0,33.4,30.71,NNW,338,2.3,2.3,90,0.00,CLR,,0.00,WeatherDisplay:10.37,2013-02-26 22:24:00,
2013-02-26 22:29:00,35.9,33.3,30.71,NNW,341,2.3,2.3,90,0.00,CLR,,0.00,WeatherDisplay:10.37,2013-02-26 22:29:00,
2013-02-26 22:34:00,35.7,33.3,30.71,NNW,338,1.0,1.0,91,0.00,CLR,,0.00,WeatherDisplay:10.37,2013-02-26 22:34:00,
2013-02-26 22:39:00,35.6,33.2,30.71,NNW,340,0.0,0.0,91,0.00,CLR,,0.00,WeatherDisplay:10.37,2013-02-26 22:39:00,
2013-02-26 22:44:00,35.6,33.2,30.71,NNW,347,3.5,3.5,91,0.00,CLR,,0.00,WeatherDisplay:10.37,2013-02-26 22:44:00,
2013-02-26 22:49:00,35.5,33.1,30.71,NNW,330,1.2,1.2,91,0.00,CLR,,0.00,WeatherDisplay:10.37,2013-02-26 22:49:00,
2013-02-26 22:54:00,35.5,33.1,30.71,NW,321,1.2,1.2,91,0.00,CLR,,0.00,WeatherDisplay:10.37,2013-02-26 22:54:00,
2013-02-26 22:59:00,35.7,33.6,30.71,WNW,300,1.2,1.2,92,0.00,CLR,,0.00,WeatherDisplay:10.37,2013-02-26 22:59:00,
2013-02-26 23:04:00,35.3,32.9,30.71,WNW,300,1.2,1.2,91,0.00,CLR,,0.00,WeatherDisplay:10.37,2013-02-26 23:04:00,
2013-02-26 23:09:00,35.2,32.8,30.71,WNW,300,1.2,0.0,91,0.00,CLR,,0.00,WeatherDisplay:10.37,2013-02-26 23:09:00,
2013-02-26 23:14:00,35.1,32.7,30.71,WNW,300,0.0,0.0,91,0.00,CLR,,0.00,WeatherDisplay:10.37,2013-02-26 23:14:00,
2013-02-26 23:19:00,34.8,32.4,30.71,WNW,300,0.0,0.0,91,0.00,CLR,,0.00,WeatherDisplay:10.37,2013-02-26 23:19:00,
2013-02-26 23:25:00,34.5,32.1,30.71,WNW,300,0.0,0.0,91,0.00,CLR,,0.00,WeatherDisplay:10.37,2013-02-26 23:25:00,
2013-02-26 23:30:00,34.7,32.6,30.71,WNW,300,0.0,0.0,92,0.00,CLR,,0.00,WeatherDisplay:10.37,2013-02-26 23:30:00,
2013-02-26 23:35:00,34.3,31.9,30.71,WNW,301,0.0,0.0,91,0.00,CLR,,0.00,WeatherDisplay:10.37,2013-02-26 23:35:00,
2013-02-26 23:40:00,34.2,32.1,30.71,WNW,300,0.0,0.0,92,0.00,CLR,,0.00,WeatherDisplay:10.37,2013-02-26 23:40:00,
2013-02-26 23:45:00,34.5,32.7,30.71,WNW,300,0.0,0.0,93,0.00,CLR,,0.00,WeatherDisplay:10.37,2013-02-26 23:45:00,
2013-02-26 23:50:00,34.2,32.1,30.71,WNW,303,0.0,0.0,92,0.00,CLR,,0.00,WeatherDisplay:10.37,2013-02-26 23:50:00,
2013-02-26 23:55:00,33.9,31.8,30.71,NW,304,0.0,0.0,92,0.00,CLR,,0.00,WeatherDisplay:10.37,2013-02-26 23:55:00,